Volver al catálogo

STARLINK-5643

ActivoComunicacionesVLEO
NORAD 55431·PAYLOAD·🇺🇸 United States

Lanzado Jan 31, 2023 desde Vandenberg Space Force Base

Loading…

Próximos Pases (próximas 24 horas)

TLE

ActualizadoSource: CelesTrak SupGP

Época: Sep 14, 2026, 21:41 UTC

1 55431C 23014AS  26257.90395833  .00530170  00000+0  43205-1 0  2577
2 55431  70.0004 327.5422 0003200 273.4995 340.0338 14.99141703    11

Sigue STARLINK-5643 en tiempo real con AllMySat

Download on the App Store